Regional Weather Roundup
Issued by NWS Sioux Falls, SD

Home | Current Version | Previous Version | Graphics & Text | Print | Product List | Glossary Off
Versions: 1 2 3 4 5 6 7 8 9 10 11 12 13 14 15 16 17 18 19 20 21 22 23 24 25 26 27 28 29 30 31 32 33 34 35 36 37 38 39 40 41 42 43 44 45 46 47 48 49 50

000
ASUS43 KFSD 260902
RWRFSD

WEATHER ROUNDUP FOR SE SOUTH DAKOTA/SW MINNESOTA/NW IOWA
NATIONAL WEATHER SERVICE SIOUX FALLS SD
400 AM CDT SUN APR 26 2015

NOTE: "FAIR" INDICATES FEW OR NO CLOUDS BELOW 12,000 FEET WITH NO
SIGNIFICANT WEATHER AND OR OBSTRUCTIONS TO VISIBILITY.


SDZ038>040-050-052>070-261000-
SOUTHEAST SOUTH DAKOTA

CITY           SKY/WX    TMP DP  RH WIND       PRES   REMARKS
BROOKINGS      CLEAR     39  37  93 E3        30.00R
CHAMBERLAIN    NOT AVBL
HURON          PTCLDY    41  38  89 SE6       29.97R
MADISON        FAIR      34  34 100 SE6       29.97R FOG     WCI  29
MITCHELL       PTCLDY    42  39  89 E7        29.98R
SIOUX FALLS    PTCLDY    36  34  92 NE5       29.97S
WINNER         CLOUDY    51  42  71 SE9       29.94R
YANKTON        CLOUDY    46  39  76 E6        29.96R
$$

MNZ071-072-080-081-089-090-097-098-261000-
SOUTHWEST MINNESOTA

CITY           SKY/WX    TMP DP  RH WIND       PRES   REMARKS
FAIRMONT       CLEAR     37  30  75 CALM      29.98S
JACKSON        CLEAR     34  32  93 N5        29.99S WCI  30
LUVERNE        CLEAR     37  34  87 NE3       29.99R
MARSHALL       CLEAR     39  28  65 E8        30.00R
MONTEVIDEO     CLEAR     34  28  80 SE6       30.03R WCI  29
REDWOOD FALLS  CLEAR     39  27  62 NE6       30.01R
TRACY          CLEAR     39  35  85 CALM      30.00R
WORTHINGTON    CLEAR     34  28  80 NW3       29.99S
$$

IAZ001>003-012>014-020>022-031-032-NEZ013-014-SDZ071-261000-
NORTHWEST IOWA

CITY           SKY/WX    TMP DP  RH WIND       PRES   REMARKS
DENISON        MOCLDY    41  41 100 NE5       29.94S
ESTHERVILLE    CLEAR     33  32  96 N7        29.98R FOG     WCI  27
SIOUX CITY     CLEAR     46  38  73 E5        29.97R
SPENCER        PTCLDY    31  29  92 CALM      29.98R FOG
$$

ABBREVIATIONS USED IN REMARKS
   TC - TEMPERATURE IN CELSIUS
  WCI - WIND CHILL INDEX
   HX - HEAT INDEX
  VSB - VISIBILITY



USA.gov is the U.S. government's official web portal to all federal, state and local government web resources and services.